Regional Weather Roundup
Issued by NWS

Home | Current Version | Previous Version | Text Only | Print | Product List | Glossary Off
Versions: 1 2 3 4 5 6 7 8 9 10 11 12 13 14 15 16 17 18 19 20 21 22 23 24 25 26 27 28 29 30 31 32 33 34 35 36 37 38 39 40 41 42 43 44 45 46 47 48 49 50

000
ASUS43 KIND 281609
RWRIN

WEATHER ROUNDUP FOR INDIANA
NATIONAL WEATHER SERVICE INDIANAPOLIS IN
1100 AM EST FRI NOV 28 2014

NOTE: "FAIR" INDICATES FEW OR NO CLOUDS BELOW 12,000 FEET WITH NO
SIGNIFICANT WEATHER AND/OR OBSTRUCTIONS TO VISIBILITY.

* - STATION DOES NOT REPORT WEATHER SUCH AS PRECIPITATION OR FOG.

+ - STATION NOT QUALITY CONTROLLED BY THE NATIONAL WEATHER SERVICE.
    USE DATA WITH CAUTION...ESPECIALLY DEWPOINT AND RELATIVE
    HUMIDITY OBSERVATIONS.

INZ001>003-010>013-019-020-281700-
NORTHWEST INDIANA

CITY           SKY/WX    TMP DP  RH WIND       PRES   REMARKS
GARY /AIRPORT/ PTSUNNY   27  16  63 SW10      30.27F WCI  17
KNOX *+        CLOUDY    24  17  76 S12       30.28F WCI  13
LA PORTE +     PTSUNNY   26  19  75 S10G16    30.27F WCI  16
MICHIGAN CITY+ PTSUNNY   27  16  63 S12       30.27F WCI  16
MONTICELLO +   PTSUNNY   25  18  76 S10       30.30S WCI  15
RENSSELAER +   PTSUNNY   27  21  80 S12       30.27F WCI  16
VALPARAISO     PTSUNNY   23  16  74 S14       30.27F WCI  11

$$

LMZ046-743>745-281700-
SOUTHERN LAKE MICHIGAN

STATION/POSITION TIME  TEMP WIND        PRES
                       AIR  DIR/SP/G
                 (UTC) (F)  (DEG/KT/KT) (MB)
MICHIGAN CITY    1600   23  150/ 10/ 14   N/A

$$

INZ004-005-014>016-021>024-281700-
NORTH CENTRAL INDIANA

CITY           SKY/WX    TMP DP  RH WIND       PRES   REMARKS
GOSHEN         LGT SNOW  22  17  81 S13       30.29F WCI  10
LOGANSPORT +   CLOUDY    27  19  74 S10       30.31F WCI  17
PERU/GRISSOM   CLOUDY    25  22  88 S10       30.30F WCI  15
ROCHESTER +    PTSUNNY   28  21  74 S7        30.31F WCI  21
SOUTH BEND     LGT SNOW  22  18  85 S10       30.28F FOG     WCI  11
WARSAW +       CLOUDY    25  18  74 S5        30.31S WCI  19

$$

INZ006>009-017-018-025>027-281700-
NORTHEAST INDIANA

CITY           SKY/WX    TMP DP  RH WIND       PRES   REMARKS
ANGOLA *+      MOSUNNY   21  16  79 S8        30.28F WCI  12
AUBURN +       CLOUDY    27  16  63 S7        30.31F WCI  19
FORT WAYNE     CLOUDY    25  18  74 S10       30.32F WCI  15
HUNTINGTON +   CLOUDY    25  18  75 S7        30.32S WCI  17

$$

INZ028-029-035-036-043>045-051>053-281700-
WEST CENTRAL INDIANA

CITY           SKY/WX    TMP DP  RH WIND       PRES   REMARKS
GREENCASTLE +  CLOUDY    27  19  74 S9        30.32F WCI  17
LAFAYETTE      CLOUDY    24  14  65 S9        30.31F WCI  14
TERRE HAUTE    CLOUDY    28  20  71 SE12      30.33F WCI  18

$$

INZ030>032-037>040-046>048-054>057-064-065-281700-
CENTRAL INDIANA

CITY           SKY/WX    TMP DP  RH WIND       PRES   REMARKS
CP ATTERBURY + PTSUNNY   28  18  64 S6        30.36F WCI  22
COLUMBUS       PTSUNNY  N/A N/A N/A W12       30.37F
FRANKFORT +    CLOUDY    25  18  73 S8        30.31F WCI  16
INDIANAPOLIS   CLOUDY    25  16  68 S13       30.32F WCI  14
-EAGLE CREEK   CLOUDY    25  15  66 S8        30.32F WCI  16
KOKOMO *+      CLOUDY    25  19  80 S10       30.32F WCI  15
MARION +         N/A     26  19  74 S12       30.33S WCI  15
MT COMFORT *+  PTSUNNY   27  12  54 SW10      30.33F WCI  17
SHELBYVILLE    CLOUDY    27  18  69 S13       30.34F WCI  16
ZIONSVILLE +   CLOUDY    25  16  68 S10       30.32S WCI  15

$$

INZ033-034-041-042-049-050-058-059-281700-
EAST CENTRAL INDIANA

CITY           SKY/WX    TMP DP  RH WIND       PRES   REMARKS
MUNCIE         CLOUDY    26  19  74 S10       30.32F WCI  16

$$

INZ060-061-067>069-081>083-085>088-281700-
SOUTHWEST INDIANA

CITY           SKY/WX    TMP DP  RH WIND       PRES   REMARKS
EVANSVILLE     MOSUNNY   34  25  69 S9        30.37F WCI  27
HUNTINGBURG *+ SUNNY     30  23  74 S12       30.37F WCI  21
WASHINGTON +   CLOUDY    31  25  78 S10       30.35F WCI  22

$$

INZ062-063-066-070>080-084-089>092-281700-
SOUTH CENTRAL AND SOUTHEAST INDIANA

CITY           SKY/WX    TMP DP  RH WIND       PRES   REMARKS
BLOOMINGTON    CLOUDY    27  20  75 S6        30.33F WCI  20
SEYMOUR +      PTSUNNY   30  19  64 S7        30.39  WCI  23

$$




USA.gov is the U.S. government's official web portal to all federal, state and local government web resources and services.